Volver al catálogo

ONEWEB-0128

ActivoComunicacionesPO
NORAD 47274·PAYLOAD·🇬🇧 United Kingdom

Lanzado Dec 18, 2020 desde Vostochny Cosmodrome

Loading…

Próximos Pases (próximas 24 horas)

TLE

ActualizadoSource: CelesTrak SupGP

Época: Sep 14, 2026, 20:19 UTC

1 47274C 20100S   26257.84670556 -.00001980  00000+0 -55121-2 0  2572
2 47274  87.8968 332.8774 0002059  93.7114 307.4908 13.12441466    11

Sigue ONEWEB-0128 en tiempo real con AllMySat

Download on the App Store